When you browse on this site, cookies collect data to enhance your experience and personalize the content and advertising you see.
Visit our Privacy Policy to learn more. By continuing to use the site, you agree to this use of cookies and data.
  • In Hungary
  • List of Countries
  • For 7 days
  • Water Temperature
  • Satellite Maps
  • Weather Map
  • News
  • Weather Widgets
  • user-avatar
    Login

    Hourly Weather Kinsale

    Today, 22 February, Friday

    Time Temperature Precipitation Wind Pressure Humidity
    00:00 +9°C° 0.2 mm 12 mps 758 mmHg 81%
    01:00 +9°C° 0.2 mm 12 mps 759 mmHg 83%
    02:00 +9°C° 0.2 mm 12 mps 759 mmHg 85%
    03:00 +9°C° 0.8 mm 11 mps 759 mmHg 87%
    04:00 +9°C° 0.8 mm 10 mps 759 mmHg 90%
    05:00 +9°C° 0.8 mm 10 mps 760 mmHg 93%
    06:00 +10°C° 1.3 mm 9 mps 760 mmHg 92%
    07:00 +10°C° 1.3 mm 9 mps 760 mmHg 92%
    08:00 +10°C° 1.3 mm 9 mps 760 mmHg 92%
    09:00 +9°C° 0 mm 10 mps 760 mmHg 90%
    10:00 +11°C° 0 mm 10 mps 760 mmHg 87%
    11:00 +11°C° 0 mm 11 mps 761 mmHg 84%
    12:00 +12°C° 0 mm 11 mps 761 mmHg 83%
    13:00 +12°C° 0 mm 11 mps 760 mmHg 81%
    14:00 +12°C° 0 mm 12 mps 760 mmHg 80%
    15:00 +11°C° 0 mm 11 mps 760 mmHg 79%
    16:00 +11°C° 0 mm 11 mps 760 mmHg 79%
    17:00 +11°C° 0 mm 11 mps 760 mmHg 78%
    18:00 +11°C° 0 mm 11 mps 760 mmHg 77%
    19:00 +9°C° 0 mm 11 mps 759 mmHg 76%
    20:00 +9°C° 0 mm 11 mps 759 mmHg 75%
    21:00 +11°C° 0 mm 11 mps 759 mmHg 74%
    22:00 +11°C° 0 mm 11 mps 759 mmHg 74%
    23:00 +11°C° 0 mm 11 mps 759 mmHg 74%

    Tomorrow, 23 February, Saturday

    Time Temperature Precipitation Wind Pressure Humidity
    00:00 +11°C° 0 mm 11 mps 759 mmHg 74%
    01:00 +11°C° 0 mm 10 mps 758 mmHg 75%
    02:00 +9°C° 0 mm 10 mps 758 mmHg 76%
    03:00 +9°C° 0.3 mm 10 mps 758 mmHg 80%
    04:00 +9°C° 0.3 mm 10 mps 758 mmHg 84%
    05:00 +9°C° 0.3 mm 10 mps 759 mmHg 88%
    06:00 +10°C° 2.4 mm 9 mps 759 mmHg 91%
    07:00 +10°C° 2.4 mm 7 mps 760 mmHg 93%
    08:00 +10°C° 2.4 mm 6 mps 760 mmHg 96%
    09:00 +10°C° 0.2 mm 5 mps 761 mmHg 94%
    10:00 +10°C° 0.2 mm 5 mps 762 mmHg 92%
    11:00 +10°C° 0.2 mm 5 mps 762 mmHg 90%
    12:00 +11°C° 0 mm 4 mps 763 mmHg 89%
    13:00 +11°C° 0 mm 4 mps 763 mmHg 87%
    14:00 +11°C° 0 mm 3 mps 763 mmHg 86%
    15:00 +11°C° 0 mm 3 mps 764 mmHg 88%
    16:00 +10°C° 0 mm 3 mps 764 mmHg 91%
    17:00 +9°C° 0 mm 3 mps 764 mmHg 93%
    18:00 +8°C° 0 mm 3 mps 765 mmHg 94%
    19:00 +8°C° 0 mm 2 mps 765 mmHg 94%
    20:00 +7°C° 0 mm 2 mps 766 mmHg 94%
    21:00 +7°C° 0 mm 2 mps 766 mmHg 94%
    22:00 +7°C° 0 mm 3 mps 765 mmHg 93%
    23:00 +7°C° 0 mm 3 mps 765 mmHg 93%

    Day after tomorrow, 24 February, Sunday

    Time Temperature Precipitation Wind Pressure Humidity
    00:00 +7°C° 0 mm 3 mps 765 mmHg 94%
    01:00 +7°C° 0 mm 4 mps 765 mmHg 95%
    02:00 +7°C° 0 mm 4 mps 765 mmHg 96%
    03:00 +7°C° 0 mm 5 mps 765 mmHg 95%
    04:00 +7°C° 0 mm 6 mps 765 mmHg 94%
    05:00 +7°C° 0 mm 6 mps 764 mmHg 93%
    06:00 +8°C° 0 mm 6 mps 764 mmHg 92%
    07:00 +8°C° 0 mm 6 mps 765 mmHg 92%
    08:00 +8°C° 0 mm 6 mps 765 mmHg 91%
    09:00 +9°C° 0 mm 6 mps 765 mmHg 91%
    10:00 +10°C° 0 mm 6 mps 765 mmHg 91%
    11:00 +10°C° 0 mm 6 mps 765 mmHg 91%
    12:00 +10°C° 0 mm 6 mps 765 mmHg 92%
    13:00 +10°C° 0 mm 6 mps 765 mmHg 92%
    14:00 +10°C° 0 mm 6 mps 765 mmHg 93%
    15:00 +10°C° 0 mm 6 mps 765 mmHg 93%
    16:00 +10°C° 0 mm 6 mps 765 mmHg 93%
    17:00 +10°C° 0 mm 6 mps 764 mmHg 93%
    18:00 +10°C° 0 mm 6 mps 765 mmHg 92%
    19:00 +10°C° 0 mm 6 mps 765 mmHg 92%
    20:00 +10°C° 0 mm 6 mps 766 mmHg 91%
    21:00 +9°C° 0 mm 6 mps 766 mmHg 92%
    22:00 +9°C° 0 mm 6 mps 766 mmHg 93%
    23:00 +9°C° 0 mm 6 mps 766 mmHg 94%

    25 February, Monday

    Time Temperature Precipitation Wind Pressure Humidity
    00:00 +9°C° 0 mm 6 mps 766 mmHg 94%
    01:00 +9°C° 0 mm 6 mps 766 mmHg 95%
    02:00 +9°C° 0 mm 5 mps 766 mmHg 95%
    03:00 +9°C° 0 mm 5 mps 767 mmHg 95%
    04:00 +9°C° 0 mm 5 mps 767 mmHg 95%
    05:00 +9°C° 0 mm 5 mps 767 mmHg 96%
    06:00 +9°C° 0 mm 5 mps 767 mmHg 95%
    07:00 +10°C° 0 mm 5 mps 767 mmHg 95%
    08:00 +10°C° 0 mm 5 mps 768 mmHg 94%
    09:00 +12°C° 0 mm 5 mps 768 mmHg 90%
    10:00 +12°C° 0 mm 5 mps 768 mmHg 86%
    11:00 +13°C° 0 mm 6 mps 768 mmHg 82%
    12:00 +13°C° 0 mm 5 mps 768 mmHg 82%
    13:00 +13°C° 0 mm 5 mps 768 mmHg 82%
    14:00 +13°C° 0 mm 5 mps 767 mmHg 82%
    15:00 +12°C° 0 mm 5 mps 767 mmHg 86%
    16:00 +10°C° 0 mm 4 mps 767 mmHg 90%
    17:00 +8°C° 0 mm 4 mps 767 mmHg 94%
    18:00 +8°C° 0 mm 4 mps 767 mmHg 94%
    19:00 +7°C° 0 mm 4 mps 767 mmHg 94%
    20:00 +7°C° 0 mm 4 mps 767 mmHg 94%
    21:00 +8°C° 0 mm 3 mps 767 mmHg 94%
    22:00 +7°C° 0 mm 3 mps 767 mmHg 94%
    23:00 +7°C° 0 mm 3 mps 767 mmHg 94%

    26 February, Tuesday

    Time Temperature Precipitation Wind Pressure Humidity
    00:00 +7°C° 0 mm 3 mps 766 mmHg 94%
    01:00 +7°C° 0 mm 3 mps 766 mmHg 94%
    02:00 +7°C° 0 mm 3 mps 766 mmHg 94%
    03:00 +6°C° 0 mm 4 mps 765 mmHg 94%
    04:00 +6°C° 0 mm 4 mps 765 mmHg 94%
    05:00 +6°C° 0 mm 4 mps 764 mmHg 94%
    06:00 +6°C° 0 mm 4 mps 764 mmHg 93%
    07:00 +7°C° 0 mm 4 mps 764 mmHg 91%
    08:00 +7°C° 0 mm 4 mps 764 mmHg 90%
    09:00 +8°C° 0 mm 5 mps 764 mmHg 87%
    10:00 +9°C° 0 mm 5 mps 764 mmHg 84%
    11:00 +10°C° 0 mm 6 mps 764 mmHg 81%
    12:00 +10°C° 0 mm 6 mps 763 mmHg 80%
    13:00 +10°C° 0 mm 6 mps 763 mmHg 80%
    14:00 +10°C° 0 mm 6 mps 763 mmHg 79%
    15:00 +9°C° 0 mm 5 mps 762 mmHg 84%
    16:00 +8°C° 0 mm 5 mps 762 mmHg 89%
    17:00 +7°C° 0 mm 4 mps 762 mmHg 93%
    18:00 +7°C° 0 mm 4 mps 762 mmHg 95%
    19:00 +7°C° 0 mm 4 mps 762 mmHg 96%
    20:00 +6°C° 0 mm 4 mps 762 mmHg 97%
    21:00 +6°C° 0 mm 4 mps 762 mmHg 97%
    22:00 +6°C° 0 mm 4 mps 762 mmHg 97%
    23:00 +6°C° 0 mm 4 mps 762 mmHg 97%

    27 February, Wednesday

    Time Temperature Precipitation Wind Pressure Humidity
    00:00 +7°C° 0 mm 3 mps 761 mmHg 97%
    01:00 +7°C° 0 mm 3 mps 761 mmHg 97%
    02:00 +7°C° 0 mm 3 mps 761 mmHg 97%
    03:00 +7°C° 0 mm 3 mps 761 mmHg 97%
    04:00 +8°C° 0 mm 3 mps 760 mmHg 97%
    05:00 +8°C° 0 mm 3 mps 760 mmHg 98%
    06:00 +8°C° 0 mm 3 mps 760 mmHg 97%
    07:00 +9°C° 0 mm 3 mps 760 mmHg 96%
    08:00 +10°C° 0 mm 3 mps 760 mmHg 95%
    09:00 +10°C° 0 mm 3 mps 760 mmHg 91%
    10:00 +11°C° 0 mm 3 mps 760 mmHg 88%
    11:00 +12°C° 0 mm 3 mps 760 mmHg 85%
    12:00 +13°C° 0 mm 3 mps 760 mmHg 84%
    13:00 +13°C° 0 mm 3 mps 759 mmHg 83%
    14:00 +13°C° 0 mm 3 mps 759 mmHg 81%
    15:00 +12°C° 0 mm 3 mps 759 mmHg 86%
    16:00 +11°C° 0 mm 3 mps 759 mmHg 90%
    17:00 +10°C° 0 mm 3 mps 759 mmHg 94%
    18:00 +9°C° 0 mm 3 mps 759 mmHg 94%
    19:00 +9°C° 0 mm 3 mps 759 mmHg 94%
    20:00 +8°C° 0 mm 3 mps 759 mmHg 94%
    21:00 +8°C° 0 mm 3 mps 759 mmHg 94%
    22:00 +8°C° 0 mm 3 mps 758 mmHg 94%
    23:00 +8°C° 0 mm 3 mps 758 mmHg 94%
    Show more